Miscellaneous Local Product
Issued by NWS North Platte, NE

Home | Current Version | Previous Version | Text Only | Print | Product List | Glossary On
Versions: 1 2 3 4 5 6 7 8 9 10 11 12 13 14 15 16 17 18 19 20 21 22 23 24 25 26 27 28 29 30 31 32 33 34 35 36 37 38 39 40 41 42 43 44 45 46 47 48 49 50
000
AXUS43 KLBF 261810
MISLBF


WESTERN AND NORTH CENTRAL NEBRASKA HOURLY WEATHER ROUNDUP
NATIONAL WEATHER SERVICE NORTH PLATTE NE
100 PM CDT MON SEP 26 2016

NOTE: "FAIR" INDICATES FEW OR NO CLOUDS BELOW 12,000 FEET WITH NO
SIGNIFICANT WEATHER AND/OR OBSTRUCTIONS TO VISIBILITY.

NOTE: STATIONS NOT REPORTING VARIABLES SUCH AS SKY/WEATHER OR
PRESSURE ARE PROVIDED BY RAWS AND APRS NETWORKS AND ARE NOT UNDER
NATIONAL WEATHER SERVICE QUALITY CONTROL.

...OBSERVATIONS IN AND NEAR THE EASTERN PANHANDLE OF NEBRASKA...

CITY           SKY/WX    TMP DP  RH WIND       PRES   REMARKS
PINE RIDGE     SUNNY     71  39  31 W10G16    30.27F
CHADRON        SUNNY     71  39  31 NW16      30.30F
ALLIANCE       SUNNY     70  37  29 W13G18    30.31F
SIDNEY         SUNNY     72  37  28 NW13G21   30.35F
CRESCENT LAKE    N/A     70  37  29 N10G17      N/A
$$

...OBSERVATIONS IN NORTHERN NEBRASKA AND FAR SOUTHERN SOUTH DAKOTA...

CITY           SKY/WX    TMP DP  RH WIND       PRES   REMARKS
WINNER         FAIR      72  38  29 NW15G24   30.20F
VALENTINE      SUNNY     71  34  25 NW17G25   30.23F
THEDFORD       SUNNY     73  40  29 NW10G29   30.26F
AINSWORTH      SUNNY     69  39  32 NW15G24   30.24S
O`NEILL        SUNNY     73  30  21 NW13G22   30.21F
ORD            SUNNY     72  34  24 W12G21    30.21F
BROKEN BOW     SUNNY     74  36  25 NW12G26   30.23F
VALENTINE NWR    N/A     70  37  29 NW14G21     N/A
BUTTE            N/A     69  40  35 W15G25      N/A
HALSEY           N/A     73  37  26 W12G20      N/A
EWING            N/A     70  44  39 W12         N/A
$$

...OBSERVATIONS IN SOUTHWEST NEBRASKA AND FAR NORTHEAST COLORADO...

CITY           SKY/WX    TMP DP  RH WIND       PRES   REMARKS
WRAY           FAIR      73  32  21 NW9G17    30.34
HOLYOKE        FAIR      75  36  23 NW10      30.33F
IMPERIAL       SUNNY     72  35  25 NW15G21   30.30F
OGALLALA       SUNNY     74  34  23 NW14      30.30F
NORTH PLATTE   SUNNY     73  38  27 W14       30.27F
MCCOOK         SUNNY     73  36  25 W13       30.28F
LEXINGTON      SUNNY     73  31  21 W8        30.27F
STAPLETON        N/A     73  40  31 CALM        N/A
GOTHENBURG       N/A     69  30  23 W8          N/A
CALLAWAY         N/A     69  39  33 W16         N/A
$$

...OBSERVATIONS IN CENTRAL LINCOLN COUNTY AREA...

CITY           SKY/WX    TMP DP  RH WIND       PRES   REMARKS
N.P. AIRPORT   SUNNY     73  38  27 W14       30.27F
N.P. DOWNTOWN    N/A     72  40  31 CALM        N/A
N.P. SOUTHEAST   N/A     72  40  30 W5G12       N/A
N.P. HILLCREST   N/A     71  39  30 W12G20      N/A
$$

...SOME OBSERVATIONS FROM AROUND THE REGION...

CITY           SKY/WX    TMP DP  RH WIND       PRES   REMARKS
DENVER         SUNNY     71  29  21 SE3       30.40F
LARAMIE        SUNNY     59  31  34 VRB6      30.49S
CHEYENNE       SUNNY     67  34  29 N14G21    30.42F
SCOTTSBLUFF    SUNNY     69  43  38 W9        30.35F
RAPID CITY     SUNNY     72  41  32 NW18      30.25F
BISMARCK       SUNNY     65  35  33 NW16G24   30.15F
PIERRE         SUNNY     68  39  34 W12       30.17F
SIOUX FALLS    MOSUNNY   68  41  37 NW17G25   30.12F
OMAHA          MOSUNNY   73  40  30 W15       30.19F
GRAND ISLAND   SUNNY     73  36  25 W18       30.24F
KANSAS CITY    SUNNY     70  39  32 N10       30.24F
WICHITA        MOSUNNY   72  40  31 N8        30.31F
OKLAHOMA CITY  PTSUNNY   73  35  25 N16G23    30.27F
DALLAS         LGT RAIN  65  58  78 N20       30.19R
AMARILLO       SUNNY     70  35  27 E9        30.39F
DODGE CITY     SUNNY     71  27  19 VRB5      30.35F
HAYS           SUNNY     73  30  20 W12G20    30.31F
GOODLAND       SUNNY     73  37  27 W14       30.32F
$$




USA.gov is the U.S. government's official web portal to all federal, state and local government web resources and services.